User: anonymous
Location: Vallejo Observatory
(38.1221°N, 122.2109°W)
Time: 03:09:29
(UTC-07:00)
Language:

MOS 1 Rocket - Orbit

View from above orbital plane
View from above orbital plane
View from above satellite
View from above satellite

Ground track
Ground track

The orbit data is extracted from the following two-line orbital elements,

1 17528U 87018B   14105.19852576  .00000361  00000-0  90378-4 0  3435
2 17528 097.4684 181.6213 0152964 330.1059 080.8242 14.49909099431874
Epoch (UTC): 15 April 2014 04:45:52
Eccentricity: 0.0152964
inclination: 97.4684°
perigee height: 617 km
apogee height: 834 km
right ascension of ascending node: 181.6213°
argument of perigee: 330.1059°
revolutions per day: 14.49909099
mean anomaly at epoch: 80.8242°
orbit number at epoch: 43187

The dashed part of the orbit path shows where the satellite is in the earth's shadow,  

DLR